Year,Month,Day,Hour,Minute,Value (Times are PST for windgust in km/hr)
2010,05,31,00,00,19.30
2010,05,31,00,01,16.10
2010,05,31,00,02,19.30
2010,05,31,00,03,16.10
2010,05,31,00,04,11.30
2010,05,31,00,05,16.10
2010,05,31,00,06,22.50
2010,05,31,00,07,20.90
2010,05,31,00,08,16.10
2010,05,31,00,09,14.50
2010,05,31,00,10,17.70
2010,05,31,00,11,11.30
2010,05,31,00,12,14.50
2010,05,31,00,13,11.30
2010,05,31,00,14,9.60
2010,05,31,00,15,11.30
2010,05,31,00,16,16.10
2010,05,31,00,17,16.10
2010,05,31,00,18,16.10
2010,05,31,00,19,19.30
2010,05,31,00,20,19.30
2010,05,31,00,21,16.10
2010,05,31,00,22,17.70
2010,05,31,00,23,16.10
2010,05,31,00,24,14.50
2010,05,31,00,25,9.60
2010,05,31,00,26,14.50
2010,05,31,00,27,14.50
2010,05,31,00,28,17.70
2010,05,31,00,29,16.10
2010,05,31,00,30,16.10
2010,05,31,00,31,14.50
2010,05,31,00,32,17.70
2010,05,31,00,33,16.10
2010,05,31,00,34,11.30
2010,05,31,00,35,14.50
2010,05,31,00,36,11.30
2010,05,31,00,37,11.30
2010,05,31,00,38,12.90
2010,05,31,00,39,16.10
2010,05,31,00,40,16.10
2010,05,31,00,41,16.10
2010,05,31,00,42,14.50
2010,05,31,00,43,19.30
2010,05,31,00,44,11.30
2010,05,31,00,45,16.10
2010,05,31,00,46,16.10
2010,05,31,00,47,12.90
2010,05,31,00,48,9.60
2010,05,31,00,49,11.30
2010,05,31,00,50,12.90
2010,05,31,00,51,16.10
2010,05,31,00,52,11.30
2010,05,31,00,53,14.50
2010,05,31,00,54,14.50
2010,05,31,00,55,14.50
2010,05,31,00,56,14.50
2010,05,31,00,57,11.30
2010,05,31,00,58,14.50
2010,05,31,00,59,17.70
2010,05,31,01,00,14.50
2010,05,31,01,01,11.30
2010,05,31,01,02,11.30
2010,05,31,01,03,14.50
2010,05,31,01,04,16.10
2010,05,31,01,05,11.30
2010,05,31,01,06,11.30
2010,05,31,01,07,12.90
2010,05,31,01,08,17.70
2010,05,31,01,09,14.50
2010,05,31,01,10,14.50
2010,05,31,01,11,16.10
2010,05,31,01,12,16.10
2010,05,31,01,13,12.90
2010,05,31,01,14,11.30
2010,05,31,01,15,11.30
2010,05,31,01,16,16.10
2010,05,31,01,17,16.10
2010,05,31,01,18,8.10
2010,05,31,01,19,9.60
2010,05,31,01,20,16.10
2010,05,31,01,21,16.10
2010,05,31,01,22,12.90
2010,05,31,01,23,11.30
2010,05,31,01,24,11.30
2010,05,31,01,25,12.90
2010,05,31,01,26,11.30
2010,05,31,01,27,9.60
2010,05,31,01,28,8.10
2010,05,31,01,29,6.40
2010,05,31,01,30,16.10
2010,05,31,01,31,14.50
2010,05,31,01,32,16.10
2010,05,31,01,33,16.10
2010,05,31,01,34,11.30
2010,05,31,01,35,16.10
2010,05,31,01,36,16.10
2010,05,31,01,37,16.10
2010,05,31,01,38,11.30
2010,05,31,01,39,9.60
2010,05,31,01,40,12.90
2010,05,31,01,41,16.10
2010,05,31,01,42,11.30
2010,05,31,01,43,8.10
2010,05,31,01,44,17.70
2010,05,31,01,45,17.70
2010,05,31,01,46,17.70
2010,05,31,01,47,19.30
2010,05,31,01,48,17.70
2010,05,31,01,49,16.10
2010,05,31,01,50,11.30
2010,05,31,01,51,11.30
2010,05,31,01,52,9.60
2010,05,31,01,53,9.60
2010,05,31,01,54,8.10
2010,05,31,01,55,11.30
2010,05,31,01,56,11.30
2010,05,31,01,57,16.10
2010,05,31,01,58,17.70
2010,05,31,01,59,11.30
2010,05,31,02,00,11.30
2010,05,31,02,01,14.50
2010,05,31,02,02,17.70
2010,05,31,02,03,14.50
2010,05,31,02,04,14.50
2010,05,31,02,05,11.30
2010,05,31,02,06,12.90
2010,05,31,02,07,14.50
2010,05,31,02,08,14.50
2010,05,31,02,09,11.30
2010,05,31,02,10,17.70
2010,05,31,02,11,16.10
2010,05,31,02,12,11.30
2010,05,31,02,13,11.30
2010,05,31,02,14,11.30
2010,05,31,02,15,14.50
2010,05,31,02,16,14.50
2010,05,31,02,17,17.70
2010,05,31,02,18,16.10
2010,05,31,02,19,17.70
2010,05,31,02,20,16.10
2010,05,31,02,21,11.30
2010,05,31,02,22,14.50
2010,05,31,02,23,12.90
2010,05,31,02,24,11.30
2010,05,31,02,25,16.10
2010,05,31,02,26,12.90
2010,05,31,02,27,8.10
2010,05,31,02,28,11.30
2010,05,31,02,29,16.10
2010,05,31,02,30,8.10
2010,05,31,02,31,12.90
2010,05,31,02,32,11.30
2010,05,31,02,33,14.50
2010,05,31,02,34,16.10
2010,05,31,02,35,9.60
2010,05,31,02,36,12.90
2010,05,31,02,37,11.30
2010,05,31,02,38,17.70
2010,05,31,02,39,14.50
2010,05,31,02,40,16.10
2010,05,31,02,41,11.30
2010,05,31,02,42,11.30
2010,05,31,02,43,9.60
2010,05,31,02,44,14.50
2010,05,31,02,45,11.30
2010,05,31,02,46,11.30
2010,05,31,02,47,12.90
2010,05,31,02,48,14.50
2010,05,31,02,49,14.50
2010,05,31,02,50,9.60
2010,05,31,02,51,11.30
2010,05,31,02,52,11.30
2010,05,31,02,53,9.60
2010,05,31,02,54,9.60
2010,05,31,02,55,9.60
2010,05,31,02,56,11.30
2010,05,31,02,57,9.60
2010,05,31,02,58,16.10
2010,05,31,02,59,14.50
2010,05,31,03,00,14.50
2010,05,31,03,01,12.90
2010,05,31,03,02,9.60
2010,05,31,03,03,9.60
2010,05,31,03,04,6.40
2010,05,31,03,05,6.40
2010,05,31,03,06,9.60
2010,05,31,03,07,6.40
2010,05,31,03,08,14.50
2010,05,31,03,09,9.60
2010,05,31,03,10,9.60
2010,05,31,03,11,17.70
2010,05,31,03,12,11.30
2010,05,31,03,13,9.60
2010,05,31,03,14,11.30
2010,05,31,03,15,9.60
2010,05,31,03,16,9.60
2010,05,31,03,17,6.40
2010,05,31,03,18,8.10
2010,05,31,03,19,4.80
2010,05,31,03,20,6.40
2010,05,31,03,21,11.30
2010,05,31,03,22,9.60
2010,05,31,03,23,16.10
2010,05,31,03,24,9.60
2010,05,31,03,25,11.30
2010,05,31,03,26,11.30
2010,05,31,03,27,14.50
2010,05,31,03,28,9.60
2010,05,31,03,29,9.60
2010,05,31,03,30,11.30
2010,05,31,03,31,9.60
2010,05,31,03,32,9.60
2010,05,31,03,33,11.30
2010,05,31,03,34,11.30
2010,05,31,03,35,11.30
2010,05,31,03,36,11.30
2010,05,31,03,37,9.60
2010,05,31,03,38,16.10
2010,05,31,03,39,9.60
2010,05,31,03,40,9.60
2010,05,31,03,41,14.50
2010,05,31,03,42,11.30
2010,05,31,03,43,11.30
2010,05,31,03,44,11.30
2010,05,31,03,45,9.60
2010,05,31,03,46,9.60
2010,05,31,03,47,9.60
2010,05,31,03,48,8.10
2010,05,31,03,49,8.10
2010,05,31,03,50,11.30
2010,05,31,03,51,8.10
2010,05,31,03,52,11.30
2010,05,31,03,53,8.10
2010,05,31,03,54,8.10
2010,05,31,03,55,9.60
2010,05,31,03,56,9.60
2010,05,31,03,57,12.90
2010,05,31,03,58,9.60
2010,05,31,03,59,11.30
2010,05,31,04,00,11.30
2010,05,31,04,01,11.30
2010,05,31,04,02,11.30
2010,05,31,04,03,9.60
2010,05,31,04,04,11.30
2010,05,31,04,05,14.50
2010,05,31,04,06,17.70
2010,05,31,04,07,11.30
2010,05,31,04,08,11.30
2010,05,31,04,09,11.30
2010,05,31,04,10,11.30
2010,05,31,04,11,9.60
2010,05,31,04,12,8.10
2010,05,31,04,13,6.40
2010,05,31,04,14,11.30
2010,05,31,04,15,9.60
2010,05,31,04,16,9.60
2010,05,31,04,17,8.10
2010,05,31,04,18,9.60
2010,05,31,04,19,11.30
2010,05,31,04,20,9.60
2010,05,31,04,21,11.30
2010,05,31,04,22,16.10
2010,05,31,04,23,11.30
2010,05,31,04,24,11.30
2010,05,31,04,25,14.50
2010,05,31,04,26,11.30
2010,05,31,04,27,9.60
2010,05,31,04,28,9.60
2010,05,31,04,29,9.60
2010,05,31,04,30,11.30
2010,05,31,04,31,9.60
2010,05,31,04,32,19.30
2010,05,31,04,33,12.90
2010,05,31,04,34,14.50
2010,05,31,04,35,9.60
2010,05,31,04,36,16.10
2010,05,31,04,37,14.50
2010,05,31,04,38,11.30
2010,05,31,04,39,16.10
2010,05,31,04,40,11.30
2010,05,31,04,41,14.50
2010,05,31,04,42,16.10
2010,05,31,04,43,16.10
2010,05,31,04,44,11.30
2010,05,31,04,45,16.10
2010,05,31,04,46,11.30
2010,05,31,04,47,14.50
2010,05,31,04,48,11.30
2010,05,31,04,49,14.50
2010,05,31,04,50,9.60
2010,05,31,04,51,16.10
2010,05,31,04,52,17.70
2010,05,31,04,53,14.50
2010,05,31,04,54,11.30
2010,05,31,04,55,11.30
2010,05,31,04,56,14.50
2010,05,31,04,57,8.10
2010,05,31,04,58,8.10
2010,05,31,04,59,12.90
2010,05,31,05,00,9.60
2010,05,31,05,01,14.50
2010,05,31,05,02,17.70
2010,05,31,05,03,12.90
2010,05,31,05,04,11.30
2010,05,31,05,05,9.60
2010,05,31,05,06,9.60
2010,05,31,05,07,9.60
2010,05,31,05,08,9.60
2010,05,31,05,09,9.60
2010,05,31,05,10,8.10
2010,05,31,05,11,11.30
2010,05,31,05,12,8.10
2010,05,31,05,13,9.60
2010,05,31,05,14,9.60
2010,05,31,05,15,9.60
2010,05,31,05,16,6.40
2010,05,31,05,17,9.60
2010,05,31,05,18,11.30
2010,05,31,05,19,9.60
2010,05,31,05,20,4.80
2010,05,31,05,21,8.10
2010,05,31,05,22,8.10
2010,05,31,05,23,11.30
2010,05,31,05,24,11.30
2010,05,31,05,25,9.60
2010,05,31,05,26,11.30
2010,05,31,05,27,9.60
2010,05,31,05,28,14.50
2010,05,31,05,29,6.40
2010,05,31,05,30,11.30
2010,05,31,05,31,16.10
2010,05,31,05,32,11.30
2010,05,31,05,33,9.60
2010,05,31,05,34,9.60
2010,05,31,05,35,8.10
2010,05,31,05,36,8.10
2010,05,31,05,37,11.30
2010,05,31,05,38,9.60
2010,05,31,05,39,16.10
2010,05,31,05,40,16.10
2010,05,31,05,41,12.90
2010,05,31,05,42,16.10
2010,05,31,05,43,14.50
2010,05,31,05,44,12.90
2010,05,31,05,45,9.60
2010,05,31,05,46,11.30
2010,05,31,05,47,11.30
2010,05,31,05,48,8.10
2010,05,31,05,49,14.50
2010,05,31,05,50,14.50
2010,05,31,05,51,11.30
2010,05,31,05,52,11.30
2010,05,31,05,53,11.30
2010,05,31,05,54,16.10
2010,05,31,05,55,12.90
2010,05,31,05,56,9.60
2010,05,31,05,57,12.90
2010,05,31,05,58,16.10
2010,05,31,05,59,11.30
2010,05,31,06,00,14.50
2010,05,31,06,01,14.50
2010,05,31,06,02,11.30
2010,05,31,06,03,14.50
2010,05,31,06,04,11.30
2010,05,31,06,05,11.30
2010,05,31,06,06,12.90
2010,05,31,06,07,14.50
2010,05,31,06,08,11.30
2010,05,31,06,09,14.50
2010,05,31,06,10,16.10
2010,05,31,06,11,12.90
2010,05,31,06,12,14.50
2010,05,31,06,13,8.10
2010,05,31,06,14,9.60
2010,05,31,06,15,11.30
2010,05,31,06,16,11.30
2010,05,31,06,17,11.30
2010,05,31,06,18,8.10
2010,05,31,06,19,8.10
2010,05,31,06,20,8.10
2010,05,31,06,21,8.10
2010,05,31,06,22,8.10
2010,05,31,06,23,12.90
2010,05,31,06,24,11.30
2010,05,31,06,25,11.30
2010,05,31,06,26,8.10
2010,05,31,06,27,8.10
2010,05,31,06,28,9.60
2010,05,31,06,29,4.80
2010,05,31,06,30,6.40
2010,05,31,06,31,9.60
2010,05,31,06,32,8.10
2010,05,31,06,33,11.30
2010,05,31,06,34,8.10
2010,05,31,06,35,8.10
2010,05,31,06,36,6.40
2010,05,31,06,37,11.30
2010,05,31,06,38,8.10
2010,05,31,06,39,11.30
2010,05,31,06,40,11.30
2010,05,31,06,41,9.60
2010,05,31,06,42,11.30
2010,05,31,06,43,11.30
2010,05,31,06,44,16.10
2010,05,31,06,45,16.10
2010,05,31,06,46,9.60
2010,05,31,06,47,9.60
2010,05,31,06,48,14.50
2010,05,31,06,49,8.10
2010,05,31,06,50,8.10
2010,05,31,06,51,6.40
2010,05,31,06,52,6.40
2010,05,31,06,53,8.10
2010,05,31,06,54,8.10
2010,05,31,06,55,8.10
2010,05,31,06,56,14.50
2010,05,31,06,57,8.10
2010,05,31,06,58,8.10
2010,05,31,06,59,9.60
2010,05,31,07,00,9.60
2010,05,31,07,01,12.90
2010,05,31,07,02,11.30
2010,05,31,07,03,6.40
2010,05,31,07,04,4.80
2010,05,31,07,05,9.60
2010,05,31,07,06,11.30
2010,05,31,07,07,12.90
2010,05,31,07,08,11.30
2010,05,31,07,09,9.60
2010,05,31,07,10,8.10
2010,05,31,07,11,14.50
2010,05,31,07,12,8.10
2010,05,31,07,13,9.60
2010,05,31,07,14,9.60
2010,05,31,07,15,8.10
2010,05,31,07,16,9.60
2010,05,31,07,17,9.60
2010,05,31,07,18,8.10
2010,05,31,07,19,9.60
2010,05,31,07,20,9.60
2010,05,31,07,21,9.60
2010,05,31,07,22,9.60
2010,05,31,07,23,11.30
2010,05,31,07,24,8.10
2010,05,31,07,25,11.30
2010,05,31,07,26,11.30
2010,05,31,07,27,9.60
2010,05,31,07,28,11.30
2010,05,31,07,29,11.30
2010,05,31,07,30,9.60
2010,05,31,07,31,9.60
2010,05,31,07,32,9.60
2010,05,31,07,33,11.30
2010,05,31,07,34,16.10
2010,05,31,07,35,11.30
2010,05,31,07,36,14.50
2010,05,31,07,37,8.10
2010,05,31,07,38,16.10
2010,05,31,07,39,9.60
2010,05,31,07,40,16.10
2010,05,31,07,41,9.60
2010,05,31,07,42,11.30
2010,05,31,07,43,8.10
2010,05,31,07,44,9.60
2010,05,31,07,45,8.10
2010,05,31,07,46,9.60
2010,05,31,07,47,9.60
2010,05,31,07,48,9.60
2010,05,31,07,49,11.30
2010,05,31,07,50,8.10
2010,05,31,07,51,14.50
2010,05,31,07,52,8.10
2010,05,31,07,53,9.60
2010,05,31,07,54,9.60
2010,05,31,07,55,9.60
2010,05,31,07,56,12.90
2010,05,31,07,57,6.40
2010,05,31,07,58,6.40
2010,05,31,07,59,11.30
2010,05,31,08,00,9.60
2010,05,31,08,01,14.50
2010,05,31,08,02,12.90
2010,05,31,08,03,9.60
2010,05,31,08,04,9.60
2010,05,31,08,05,8.10
2010,05,31,08,06,9.60
2010,05,31,08,07,11.30
2010,05,31,08,08,14.50
2010,05,31,08,09,9.60
2010,05,31,08,10,16.10
2010,05,31,08,11,11.30
2010,05,31,08,12,11.30
2010,05,31,08,13,12.90
2010,05,31,08,14,9.60
2010,05,31,08,15,9.60
2010,05,31,08,16,14.50
2010,05,31,08,17,11.30
2010,05,31,08,18,14.50
2010,05,31,08,19,14.50
2010,05,31,08,20,11.30
2010,05,31,08,21,11.30
2010,05,31,08,22,11.30
2010,05,31,08,23,8.10
2010,05,31,08,24,6.40
2010,05,31,08,25,8.10
2010,05,31,08,26,9.60
2010,05,31,08,27,14.50
2010,05,31,08,28,9.60
2010,05,31,08,29,9.60
2010,05,31,08,30,6.40
2010,05,31,08,31,11.30
2010,05,31,08,32,11.30
2010,05,31,08,33,16.10
2010,05,31,08,34,16.10
2010,05,31,08,35,11.30
2010,05,31,08,36,14.50
2010,05,31,08,37,14.50
2010,05,31,08,38,14.50
2010,05,31,08,39,11.30
2010,05,31,08,40,8.10
2010,05,31,08,41,11.30
2010,05,31,08,42,14.50
2010,05,31,08,43,11.30
2010,05,31,08,44,9.60
2010,05,31,08,45,6.40
2010,05,31,08,46,9.60
2010,05,31,08,47,12.90
2010,05,31,08,48,16.10
2010,05,31,08,49,9.60
2010,05,31,08,50,11.30
2010,05,31,08,51,9.60
2010,05,31,08,52,11.30
2010,05,31,08,53,8.10
2010,05,31,08,54,9.60
2010,05,31,08,55,11.30
2010,05,31,08,56,14.50
2010,05,31,08,57,9.60
2010,05,31,08,58,9.60
2010,05,31,08,59,14.50
2010,05,31,09,00,16.10
2010,05,31,09,01,11.30
2010,05,31,09,02,14.50
2010,05,31,09,03,9.60
2010,05,31,09,04,8.10
2010,05,31,09,05,6.40
2010,05,31,09,06,11.30
2010,05,31,09,07,11.30
2010,05,31,09,08,11.30
2010,05,31,09,09,9.60
2010,05,31,09,10,11.30
2010,05,31,09,11,11.30
2010,05,31,09,12,14.50
2010,05,31,09,13,11.30
2010,05,31,09,14,16.10
2010,05,31,09,15,16.10
2010,05,31,09,16,8.10
2010,05,31,09,17,8.10
2010,05,31,09,18,11.30
2010,05,31,09,19,11.30
2010,05,31,09,20,8.10
2010,05,31,09,21,9.60
2010,05,31,09,22,11.30
2010,05,31,09,23,8.10
2010,05,31,09,24,8.10
2010,05,31,09,25,16.10
2010,05,31,09,26,14.50
2010,05,31,09,27,8.10
2010,05,31,09,28,9.60
2010,05,31,09,29,8.10
2010,05,31,09,30,16.10
2010,05,31,09,31,16.10
2010,05,31,09,32,12.90
2010,05,31,09,33,14.50
2010,05,31,09,34,14.50
2010,05,31,09,35,16.10
2010,05,31,09,36,14.50
2010,05,31,09,37,14.50
2010,05,31,09,38,9.60
2010,05,31,09,39,9.60
2010,05,31,09,40,9.60
2010,05,31,09,41,14.50
2010,05,31,09,42,16.10
2010,05,31,09,43,11.30
2010,05,31,09,44,16.10
2010,05,31,09,45,12.90
2010,05,31,09,46,17.70
2010,05,31,09,47,16.10
2010,05,31,09,48,16.10
2010,05,31,09,49,11.30
2010,05,31,09,50,11.30
2010,05,31,09,51,11.30
2010,05,31,09,52,14.50
2010,05,31,09,53,16.10
2010,05,31,09,54,12.90
2010,05,31,09,55,9.60
2010,05,31,09,56,9.60
2010,05,31,09,57,9.60
2010,05,31,09,58,9.60
2010,05,31,09,59,16.10
2010,05,31,10,00,14.50
2010,05,31,10,01,11.30
2010,05,31,10,02,12.90
2010,05,31,10,03,11.30
2010,05,31,10,04,9.60
2010,05,31,10,05,8.10
2010,05,31,10,06,11.30
2010,05,31,10,07,14.50
2010,05,31,10,08,14.50
2010,05,31,10,09,11.30
2010,05,31,10,10,14.50
2010,05,31,10,11,11.30
2010,05,31,10,12,6.40
2010,05,31,10,13,12.90
2010,05,31,10,14,14.50
2010,05,31,10,15,12.90
2010,05,31,10,16,8.10
2010,05,31,10,17,11.30
2010,05,31,10,18,12.90
2010,05,31,10,19,11.30
2010,05,31,10,20,16.10
2010,05,31,10,21,16.10
2010,05,31,10,22,11.30
2010,05,31,10,23,9.60
2010,05,31,10,24,9.60
2010,05,31,10,25,9.60
2010,05,31,10,26,11.30
2010,05,31,10,27,11.30
2010,05,31,10,28,9.60
2010,05,31,10,29,6.40
2010,05,31,10,30,8.10
2010,05,31,10,31,8.10
2010,05,31,10,32,9.60
2010,05,31,10,33,8.10
2010,05,31,10,34,6.40
2010,05,31,10,35,9.60
2010,05,31,10,36,9.60
2010,05,31,10,37,8.10
2010,05,31,10,38,8.10
2010,05,31,10,39,6.40
2010,05,31,10,40,14.50
2010,05,31,10,41,9.60
2010,05,31,10,42,9.60
2010,05,31,10,43,11.30
2010,05,31,10,44,11.30
2010,05,31,10,45,14.50
2010,05,31,10,46,9.60
2010,05,31,10,47,8.10
2010,05,31,10,48,9.60
2010,05,31,10,49,12.90
2010,05,31,10,50,6.40
2010,05,31,10,51,6.40
2010,05,31,10,52,11.30
2010,05,31,10,53,14.50
2010,05,31,10,54,9.60
2010,05,31,10,55,9.60
2010,05,31,10,56,6.40
2010,05,31,10,57,6.40
2010,05,31,10,58,6.40
2010,05,31,10,59,9.60
2010,05,31,11,00,9.60
2010,05,31,11,01,8.10
2010,05,31,11,02,8.10
2010,05,31,11,03,8.10
2010,05,31,11,04,8.10
2010,05,31,11,05,9.60
2010,05,31,11,06,11.30
2010,05,31,11,07,14.50
2010,05,31,11,08,9.60
2010,05,31,11,09,11.30
2010,05,31,11,10,9.60
2010,05,31,11,11,8.10
2010,05,31,11,12,8.10
2010,05,31,11,13,8.10
2010,05,31,11,14,8.10
2010,05,31,11,15,8.10
2010,05,31,11,16,6.40
2010,05,31,11,17,6.40
2010,05,31,11,18,4.80
2010,05,31,11,19,8.10
2010,05,31,11,20,8.10
2010,05,31,11,21,9.60
2010,05,31,11,22,9.60
2010,05,31,11,23,8.10
2010,05,31,11,24,9.60
2010,05,31,11,25,9.60
2010,05,31,11,26,6.40
2010,05,31,11,27,9.60
2010,05,31,11,28,8.10
2010,05,31,11,29,6.40
2010,05,31,11,30,8.10
2010,05,31,11,31,9.60
2010,05,31,11,32,8.10
2010,05,31,11,33,6.40
2010,05,31,11,34,8.10
2010,05,31,11,35,8.10
2010,05,31,11,36,8.10
2010,05,31,11,37,8.10
2010,05,31,11,38,8.10
2010,05,31,11,39,8.10
2010,05,31,11,40,8.10
2010,05,31,11,41,8.10
2010,05,31,11,42,8.10
2010,05,31,11,43,11.30
2010,05,31,11,44,11.30
2010,05,31,11,45,9.60
2010,05,31,11,46,9.60
2010,05,31,11,47,14.50
2010,05,31,11,48,9.60
2010,05,31,11,49,9.60
2010,05,31,11,50,8.10
2010,05,31,11,51,9.60
2010,05,31,11,52,6.40
2010,05,31,11,53,11.30
2010,05,31,11,54,9.60
2010,05,31,11,55,9.60
2010,05,31,11,56,9.60
2010,05,31,11,57,11.30
2010,05,31,11,58,8.10
2010,05,31,11,59,8.10
2010,05,31,12,00,8.10
2010,05,31,12,01,8.10
2010,05,31,12,02,4.80
2010,05,31,12,03,11.30
2010,05,31,12,04,9.60
2010,05,31,12,05,11.30
2010,05,31,12,06,9.60
2010,05,31,12,07,8.10
2010,05,31,12,08,4.80
2010,05,31,12,09,9.60
2010,05,31,12,10,9.60
2010,05,31,12,11,11.30
2010,05,31,12,12,11.30
2010,05,31,12,13,11.30
2010,05,31,12,14,8.10
2010,05,31,12,15,3.20
2010,05,31,12,16,6.40
2010,05,31,12,17,8.10
2010,05,31,12,18,8.10
2010,05,31,12,19,8.10
2010,05,31,12,20,9.60
2010,05,31,12,21,11.30
2010,05,31,12,22,6.40
2010,05,31,12,23,9.60
2010,05,31,12,24,9.60
2010,05,31,12,25,9.60
2010,05,31,12,26,6.40
2010,05,31,12,27,9.60
2010,05,31,12,28,4.80
2010,05,31,12,29,11.30
2010,05,31,12,30,9.60
2010,05,31,12,31,11.30
2010,05,31,12,32,11.30
2010,05,31,12,33,8.10
2010,05,31,12,34,6.40
2010,05,31,12,35,8.10
2010,05,31,12,36,6.40
2010,05,31,12,37,11.30
2010,05,31,12,38,9.60
2010,05,31,12,39,8.10
2010,05,31,12,40,8.10
2010,05,31,12,41,8.10
2010,05,31,12,42,6.40
2010,05,31,12,43,6.40
2010,05,31,12,44,9.60
2010,05,31,12,45,9.60
2010,05,31,12,46,9.60
2010,05,31,12,47,9.60
2010,05,31,12,48,8.10
2010,05,31,12,49,12.90
2010,05,31,12,50,11.30
2010,05,31,12,51,9.60
2010,05,31,12,52,8.10
2010,05,31,12,53,6.40
2010,05,31,12,54,3.20
2010,05,31,12,55,6.40
2010,05,31,12,56,8.10
2010,05,31,12,57,8.10
2010,05,31,12,58,8.10
2010,05,31,12,59,8.10
2010,05,31,13,00,11.30
2010,05,31,13,01,8.10
2010,05,31,13,02,8.10
2010,05,31,13,03,4.80
2010,05,31,13,04,1.60
2010,05,31,13,05,4.80
2010,05,31,13,06,8.10
2010,05,31,13,07,6.40
2010,05,31,13,08,4.80
2010,05,31,13,09,4.80
2010,05,31,13,10,8.10
2010,05,31,13,11,8.10
2010,05,31,13,12,4.80
2010,05,31,13,13,4.80
2010,05,31,13,14,6.40
2010,05,31,13,15,6.40
2010,05,31,13,16,3.20
2010,05,31,13,17,6.40
2010,05,31,13,18,4.80
2010,05,31,13,19,1.60
2010,05,31,13,21,1.60
2010,05,31,13,22,1.60
2010,05,31,13,24,4.80
2010,05,31,13,25,6.40
2010,05,31,13,26,4.80
2010,05,31,13,27,6.40
2010,05,31,13,28,4.80
2010,05,31,13,29,3.20
2010,05,31,13,30,3.20
2010,05,31,13,31,1.60
2010,05,31,13,32,1.60
2010,05,31,13,33,4.80
2010,05,31,13,34,4.80
2010,05,31,13,35,1.60
2010,05,31,13,36,3.20
2010,05,31,13,37,1.60
2010,05,31,13,38,1.60
2010,05,31,13,39,4.80
2010,05,31,13,40,6.40
2010,05,31,13,41,9.60
2010,05,31,13,42,6.40
2010,05,31,13,43,4.80
2010,05,31,13,44,1.60
2010,05,31,13,45,3.20
2010,05,31,13,46,6.40
2010,05,31,13,47,11.30
2010,05,31,13,48,12.90
2010,05,31,13,49,11.30
2010,05,31,13,50,9.60
2010,05,31,13,51,14.50
2010,05,31,13,52,11.30
2010,05,31,13,53,11.30
2010,05,31,13,54,11.30
2010,05,31,13,55,9.60
2010,05,31,13,56,8.10
2010,05,31,13,57,9.60
2010,05,31,13,58,9.60
2010,05,31,13,59,4.80
2010,05,31,14,00,8.10
2010,05,31,14,01,8.10
2010,05,31,14,02,9.60
2010,05,31,14,03,6.40
2010,05,31,14,04,6.40
2010,05,31,14,05,8.10
2010,05,31,14,06,8.10
2010,05,31,14,07,8.10
2010,05,31,14,08,6.40
2010,05,31,14,09,9.60
2010,05,31,14,10,8.10
2010,05,31,14,11,6.40
2010,05,31,14,12,4.80
2010,05,31,14,13,3.20
2010,05,31,14,14,8.10
2010,05,31,14,15,4.80
2010,05,31,14,16,4.80
2010,05,31,14,20,4.80
2010,05,31,14,21,4.80
2010,05,31,14,22,4.80
2010,05,31,14,23,8.10
2010,05,31,14,24,8.10
2010,05,31,14,25,6.40
2010,05,31,14,26,4.80
2010,05,31,14,27,11.30
2010,05,31,14,28,8.10
2010,05,31,14,29,8.10
2010,05,31,14,30,6.40
2010,05,31,14,31,6.40
2010,05,31,14,32,4.80
2010,05,31,14,33,1.60
2010,05,31,14,34,8.10
2010,05,31,14,35,3.20
2010,05,31,14,36,6.40
2010,05,31,14,37,9.60
2010,05,31,14,38,9.60
2010,05,31,14,39,6.40
2010,05,31,14,40,9.60
2010,05,31,14,41,8.10
2010,05,31,14,42,6.40
2010,05,31,14,43,11.30
2010,05,31,14,44,12.90
2010,05,31,14,45,11.30
2010,05,31,14,46,9.60
2010,05,31,14,47,8.10
2010,05,31,14,48,14.50
2010,05,31,14,49,6.40
2010,05,31,14,50,8.10
2010,05,31,14,51,4.80
2010,05,31,14,52,14.50
2010,05,31,14,53,8.10
2010,05,31,14,54,16.10
2010,05,31,14,55,8.10
2010,05,31,14,56,8.10
2010,05,31,14,57,6.40
2010,05,31,14,58,4.80
2010,05,31,14,59,3.20
2010,05,31,15,00,3.20
2010,05,31,15,01,8.10
2010,05,31,15,02,6.40
2010,05,31,15,03,9.60
2010,05,31,15,04,11.30
2010,05,31,15,05,19.30
2010,05,31,15,06,19.30
2010,05,31,15,07,16.10
2010,05,31,15,08,11.30
2010,05,31,15,09,14.50
2010,05,31,15,10,11.30
2010,05,31,15,11,9.60
2010,05,31,15,12,8.10
2010,05,31,15,13,11.30
2010,05,31,15,14,4.80
2010,05,31,15,15,3.20
2010,05,31,15,16,6.40
2010,05,31,15,17,3.20
2010,05,31,15,18,11.30
2010,05,31,15,19,4.80
2010,05,31,15,20,14.50
2010,05,31,15,21,9.60
2010,05,31,15,22,3.20
2010,05,31,15,23,8.10
2010,05,31,15,24,8.10
2010,05,31,15,25,6.40
2010,05,31,15,26,8.10
2010,05,31,15,27,6.40
2010,05,31,15,28,19.30
2010,05,31,15,29,17.70
2010,05,31,15,30,14.50
2010,05,31,15,31,11.30
2010,05,31,15,32,12.90
2010,05,31,15,33,14.50
2010,05,31,15,34,11.30
2010,05,31,15,35,8.10
2010,05,31,15,36,12.90
2010,05,31,15,37,11.30
2010,05,31,15,38,11.30
2010,05,31,15,39,8.10
2010,05,31,15,40,11.30
2010,05,31,15,41,11.30
2010,05,31,15,42,14.50
2010,05,31,15,43,16.10
2010,05,31,15,44,17.70
2010,05,31,15,45,16.10
2010,05,31,15,46,12.90
2010,05,31,15,47,8.10
2010,05,31,15,48,11.30
2010,05,31,15,49,9.60
2010,05,31,15,50,8.10
2010,05,31,15,51,16.10
2010,05,31,15,52,9.60
2010,05,31,15,53,12.90
2010,05,31,15,54,24.20
2010,05,31,15,55,24.20
2010,05,31,15,56,24.20
2010,05,31,15,57,14.50
2010,05,31,15,58,11.30
2010,05,31,15,59,16.10
2010,05,31,16,00,19.30
2010,05,31,16,01,17.70
2010,05,31,16,02,22.50
2010,05,31,16,03,16.10
2010,05,31,16,04,11.30
2010,05,31,16,05,14.50
2010,05,31,16,06,16.10
2010,05,31,16,07,29.00
2010,05,31,16,08,19.30
2010,05,31,16,09,16.10
2010,05,31,16,10,11.30
2010,05,31,16,11,14.50
2010,05,31,16,12,14.50
2010,05,31,16,13,9.60
2010,05,31,16,14,12.90
2010,05,31,16,15,8.10
2010,05,31,16,16,16.10
2010,05,31,16,17,14.50
2010,05,31,16,18,11.30
2010,05,31,16,19,11.30
2010,05,31,16,20,14.50
2010,05,31,16,21,17.70
2010,05,31,16,22,16.10
2010,05,31,16,23,16.10
2010,05,31,16,24,9.60
2010,05,31,16,25,16.10
2010,05,31,16,26,6.40
2010,05,31,16,27,16.10
2010,05,31,16,28,9.60
2010,05,31,16,29,11.30
2010,05,31,16,30,9.60
2010,05,31,16,31,16.10
2010,05,31,16,32,16.10
2010,05,31,16,33,8.10
2010,05,31,16,34,20.90
2010,05,31,16,35,9.60
2010,05,31,16,36,6.40
2010,05,31,16,37,11.30
2010,05,31,16,38,8.10
2010,05,31,16,39,14.50
2010,05,31,16,40,14.50
2010,05,31,16,41,14.50
2010,05,31,16,42,19.30
2010,05,31,16,43,6.40
2010,05,31,16,44,11.30
2010,05,31,16,45,11.30
2010,05,31,16,46,12.90
2010,05,31,16,47,9.60
2010,05,31,16,48,11.30
2010,05,31,16,49,12.90
2010,05,31,16,50,8.10
2010,05,31,16,51,11.30
2010,05,31,16,52,9.60
2010,05,31,16,53,6.40
2010,05,31,16,54,8.10
2010,05,31,16,55,9.60
2010,05,31,16,56,12.90
2010,05,31,16,57,12.90
2010,05,31,16,58,16.10
2010,05,31,16,59,9.60
2010,05,31,17,00,6.40
2010,05,31,17,01,11.30
2010,05,31,17,02,17.70
2010,05,31,17,03,14.50
2010,05,31,17,04,14.50
2010,05,31,17,05,12.90
2010,05,31,17,06,14.50
2010,05,31,17,07,11.30
2010,05,31,17,08,11.30
2010,05,31,17,09,11.30
2010,05,31,17,10,12.90
2010,05,31,17,11,11.30
2010,05,31,17,12,16.10
2010,05,31,17,13,9.60
2010,05,31,17,14,19.30
2010,05,31,17,15,11.30
2010,05,31,17,16,9.60
2010,05,31,17,17,19.30
2010,05,31,17,18,22.50
2010,05,31,17,19,17.70
2010,05,31,17,20,22.50
2010,05,31,17,21,20.90
2010,05,31,17,22,22.50
2010,05,31,17,23,22.50
2010,05,31,17,24,25.70
2010,05,31,17,25,22.50
2010,05,31,17,26,16.10
2010,05,31,17,27,20.90
2010,05,31,17,28,17.70
2010,05,31,17,29,17.70
2010,05,31,17,30,19.30
2010,05,31,17,31,19.30
2010,05,31,17,32,17.70
2010,05,31,17,33,16.10
2010,05,31,17,34,19.30
2010,05,31,17,35,19.30
2010,05,31,17,36,17.70
2010,05,31,17,37,16.10
2010,05,31,17,38,12.90
2010,05,31,17,39,20.90
2010,05,31,17,40,17.70
2010,05,31,17,41,9.60
2010,05,31,17,42,17.70
2010,05,31,17,43,16.10
2010,05,31,17,44,16.10
2010,05,31,17,45,16.10